Temperature
28 28 28 28 28 28 27 27 27 27 27 28 28 28 27 25 24 23 21 20 20 19 19 18 17 16 16 15 14 13 13 12 12 11 11 10 10 10 10 9 9 9 9 9
27 28 28 27 28 28 27 27 27 27 27 28 27 26 25 24 23 23 22 21 20 19 18 18 17 16 16 15 14 13 13 12 12 11 11 10 10 10 9 9 9 9 9 9
26 28 27 27 28 28 28 28 27 27 28 28 27 26 25 24 23 23 22 21 20 19 19 18 17 17 16 15 14 13 13 12 12 11 11 10 10 10 9 9 9 9 9 9
26 26 25 27 29 28 28 28 28 28 28 27 26 25 24 23 23 23 22 21 20 19 19 18 17 16 16 15 14 13 13 12 12 11 11 10 10 10 9 9 9 9 9 9
26 26 26 28 28 28 27 27 28 28 28 27 25 25 25 24 23 22 22 21 20 20 19 18 17 16 16 15 14 13 13 12 12 11 11 10 10 10 9 9 9 9 9 9
25 25 25 27 28 27 27 26 28 27 27 27 25 26 27 25 23 22 21 21 20 19 19 18 17 16 15 15 14 14 13 12 11 11 11 10 10 10 10 9 9 9 9 9
25 25 26 27 26 26 26 26 26 27 26 26 26 26 25 24 23 22 21 20 20 19 18 18 17 16 16 15 14 13 13 12 12 11 11 10 10 10 10 9 9 9 9 9
25 25 25 26 26 26 25 24 25 25 25 25 25 24 23 23 22 21 21 20 20 19 18 18 17 16 16 15 14 13 13 12 12 11 11 11 10 10 9 9 9 9 9 9
26 26 25 24 24 24 23 23 23 23 24 24 24 23 23 22 21 21 20 20 19 19 18 17 17 16 16 15 14 13 13 12 12 11 11 11 10 10 10 9 9 10 10 9
25 26 25 24 22 21 21 21 21 22 22 22 23 23 22 21 21 20 20 19 19 18 18 17 17 16 16 15 14 14 13 12 12 11 11 11 10 10 10 10 10 10 9 9
24 24 24 23 20 19 19 20 20 21 21 21 21 21 21 20 20 19 19 19 18 18 17 17 16 16 15 15 14 14 13 12 12 11 11 11 11 10 10 10 9 9 9 9
23 21 22 20 18 18 18 19 19 19 19 19 19 19 19 19 19 18 18 18 18 18 17 17 16 16 15 15 14 14 13 12 12 12 12 11 11 11 11 10 10 9 9 9
19 19 18 18 17 17 18 18 18 18 18 18 18 18 18 18 17 17 17 17 17 17 17 16 16 16 15 14 14 13 13 12 12 12 12 11 11 11 11 10 10 10 9 9
17 17 17 17 17 16 17 17 17 17 16 16 16 16 16 16 16 16 16 16 16 16 16 15 15 15 14 13 13 13 12 12 12 11 11 11 11 11 10 10 10 10 10 9
16 16 16 16 16 16 16 16 16 16 16 15 15 15 15 15 15 15 15 15 15 15 15 14 14 14 13 13 13 12 12 12 11 11 11 11 11 10 10 10 10 10 10 9
15 15 15 15 15 15 15 15 15 15 15 14 14 14 14 14 14 14 14 14 14 14 14 13 13 13 13 13 12 12 12 12 11 11 11 11 11 11 11 10 10 10 10 9
15 15 14 14 14 14 14 14 14 14 14 14 13 13 13 13 13 13 13 13 13 12 12 12 12 12 12 12 12 12 12 12 11 11 11 11 11 11 10 10 10 10 9 9
13 13 13 13 13 13 13 13 13 13 13 13 13 13 12 12 12 12 12 12 12 12 12 11 11 11 11 11 11 11 11 11 11 11 11 11 10 10 10 10 10 10 10 9
12 12 12 12 12 12 12 12 12 12 12 12 12 12 11 11 11 11 11 11 11 11 11 10 10 11 11 11 10 10 11 11 11 11 10 10 10 10 10 10 10 10 10 9
12 12 12 12 12 12 12 12 12 11 11 11 11 11 11 11 10 10 10 11 11 10 10 10 10 10 10 10 10 10 10 10 10 11 10 10 10 10 10 10 10 9 9 9
12 12 12 12 11 11 11 11 11 11 11 10 10 10 10 10 10 10 10 11 10 10 9 9 9 9 9 9 9 10 10 10 10 10 10 10 10 9 9 9 9 9 9 8
11 11 11 11 11 11 10 10 10 10 10 10 10 10 10 10 10 10 10 10 9 9 9 9 9 9 8 9 9 9 9 9 10 10 10 9 9 9 9 9 8 8 8 8
11 10 10 10 10 10 10 10 10 10 10 10 9 9 9 9 9 10 10 9 9 8 8 8 8 8 8 8 8 8 9 9 9 9 9 8 8 8 8 8 8 8 8 8
10 10 10 10 10 10 10 10 10 9 9 9 9 10 9 9 10 10 9 9 8 8 8 7 7 7 7 7 7 8 8 8 8 8 8 8 8 7 7 7 7 7 7 7
10 9 9 9 9 10 10 10 10 10 10 10 10 10 10 10 9 9 9 8 8 7 7 7 7 7 7 7 7 7 7 7 7 7 7 7 7 7 7 7 7 7 7 7
9 9 9 9 9 9 9 9 10 10 9 9 9 9 9 9 9 9 8 8 8 7 7 7 6 6 6 6 6 6 6 6 6 6 6 6 6 6 6 6 6 6 6 7
9 9 9 9 10 10 9 9 9 9 9 9 9 9 9 9 9 8 8 8 7 7 6 6 6 5 5 5 5 5 5 5 5 5 5 5 5 5 5 6 6 6 6 6
Wind_Speed
10 8 8 9 10 9 11 12 12 11 10 8 4 4 6 7 9 10 11 11 11 10 9 8 7 6 6 5 5 6 7 8 9 9 9 10 10 10 11 11 12 12 12 13
13 11 10 12 12 11 10 10 11 11 10 4 1 3 5 7 9 10 11 11 11 10 9 9 8 7 6 6 5 6 7 8 9 9 10 10 10 11 11 11 12 12 12 13
13 10 10 12 10 7 6 6 8 9 5 1 1 3 5 7 9 10 10 10 10 10 10 8 8 7 6 6 6 6 7 8 9 9 10 10 11 11 11 12 12 12 13 13
11 9 12 7 2 4 6 7 7 7 5 3 3 3 4 6 8 9 9 9 10 9 9 8 7 7 6 6 6 7 8 8 9 9 10 10 11 11 12 11 11 12 12 13
9 11 10 7 5 6 6 8 5 5 4 3 1 4 7 9 10 10 9 9 9 9 8 8 7 7 6 7 7 8 8 8 9 9 10 11 11 11 11 11 12 12 13 13
7 9 8 1 3 1 5 8 1 2 4 4 4 7 5 5 9 9 9 8 8 8 8 8 8 7 7 7 8 8 8 8 8 9 10 11 12 12 11 11 12 13 13 13
10 9 7 4 3 3 6 4 6 4 6 6 8 8 4 3 6 8 9 10 10 9 9 9 8 8 8 8 8 8 7 8 9 9 10 11 12 11 11 11 12 13 13 13
6 8 3 6 0 2 6 9 9 9 9 9 10 10 6 5 5 7 9 10 11 10 9 8 8 9 9 9 8 7 7 9 9 10 10 10 11 11 11 11 12 13 12 12
4 3 4 3 4 6 8 10 11 11 11 10 11 10 9 7 7 7 8 9 10 10 9 9 9 9 10 9 7 7 8 9 10 10 10 10 11 11 11 10 10 11 11 11
5 5 4 4 6 8 9 10 11 11 10 10 9 9 7 6 6 7 7 8 8 9 10 9 9 10 10 8 8 8 9 10 10 10 11 10 9 10 10 10 10 11 11 11
9 6 5 4 10 12 11 10 10 9 9 8 7 6 5 4 5 5 5 6 6 7 8 9 8 9 9 9 8 9 10 10 10 10 10 9 10 9 11 10 9 10 11 11
4 5 5 6 10 11 11 11 11 11 10 9 8 6 5 4 2 2 3 4 5 6 7 8 8 8 8 9 9 10 10 10 9 9 8 9 10 10 10 12 11 14 15 14
3 3 4 5 8 10 10 11 12 12 12 11 10 9 7 5 4 3 2 2 4 5 6 6 7 8 8 8 10 11 11 10 9 9 9 10 10 10 11 9 13 17 17 16
3 4 6 8 9 10 11 12 12 13 14 13 12 11 9 7 6 5 4 3 3 4 5 6 7 7 7 8 10 11 12 11 11 10 10 10 10 10 10 11 11 10 9 15
9 9 9 9 10 11 12 13 13 14 14 14 13 12 11 9 8 7 6 5 4 5 6 6 7 8 7 8 9 11 11 11 10 10 10 10 10 10 10 11 10 11 10 6
10 10 10 10 11 12 13 14 13 13 13 13 13 12 11 10 9 9 8 8 7 8 8 8 9 9 8 8 9 10 10 12 11 10 10 10 10 10 10 9 9 10 9 9
8 9 9 10 11 11 12 12 11 11 12 12 13 13 12 12 11 11 11 10 9 9 10 10 11 10 9 10 11 10 11 10 12 11 11 10 9 10 9 9 9 9 9 6
9 8 8 8 9 10 10 11 11 11 11 12 12 12 12 12 13 13 13 13 12 12 11 11 12 13 12 11 10 10 11 11 10 10 9 9 9 9 9 9 9 10 8 6
7 7 7 7 7 8 10 11 11 11 11 11 12 12 12 12 12 13 13 14 13 13 12 14 13 14 13 11 9 10 11 11 10 10 9 8 8 10 9 9 8 8 8 7
5 6 8 9 9 10 10 11 11 11 11 11 12 12 12 12 13 14 14 13 11 12 15 15 15 14 13 10 8 10 10 10 11 10 9 9 8 8 8 8 7 7 7 7
5 7 9 10 10 11 11 11 11 11 11 11 11 12 12 13 14 13 14 13 13 13 15 15 13 12 11 9 8 10 10 10 10 9 9 8 7 7 7 7 6 6 6 6
7 8 10 12 12 12 12 12 12 12 11 12 12 13 13 14 15 14 13 11 13 12 14 15 13 12 12 12 10 10 10 9 8 7 7 6 6 6 6 6 6 5 5 6
8 10 11 12 12 13 13 13 13 12 12 13 13 14 14 14 13 13 14 12 13 14 15 14 11 11 12 11 9 9 8 8 7 6 6 5 5 5 5 5 5 5 5 6
10 11 12 12 12 13 14 13 13 12 13 14 14 14 14 13 12 12 13 13 12 13 15 11 8 10 11 9 8 7 6 6 5 5 5 4 4 4 4 4 4 4 4 5
11 12 12 13 13 13 13 14 14 14 15 13 14 15 13 12 12 12 13 15 15 14 14 11 7 8 9 8 7 5 5 4 3 4 4 3 3 3 3 3 4 4 4 5
11 12 12 12 13 13 13 13 12 13 13 13 13 13 13 12 14 13 12 14 17 14 13 11 9 8 7 6 5 4 3 2 2 2 3 3 3 3 3 3 5 4 5 5
13 13 12 12 13 12 12 13 13 13 13 13 14 14 14 14 13 13 14 13 13 12 11 9 9 8 7 5 4 3 3 3 3 3 3 3 3 3 3 3 4 4 4 4
Wind_Direction
273 278 276 279 280 270 260 270 280 289 292 301 295 242 218 206 198 196 193 193 194 196 196 200 208 216 229 242 254 268 275 279 283 287 288 286 286 287 288 287 286 288 288 286
266 260 264 271 273 275 267 263 267 276 282 312 297 223 211 205 203 205 204 204 201 202 203 207 213 221 229 239 252 260 271 280 286 289 288 287 288 289 290 290 290 290 287 287
267 264 264 263 262 266 258 254 265 277 305 31 239 228 224 215 215 218 215 209 205 206 209 212 214 219 227 237 250 260 271 280 285 288 289 290 292 294 293 293 292 290 288 288
263 263 258 270 265 268 271 272 265 274 286 268 277 268 237 226 223 224 220 211 207 209 210 210 209 213 223 238 249 261 272 279 285 289 291 292 292 292 293 293 292 290 289 288
257 256 256 254 224 235 255 275 272 266 270 250 228 250 240 217 219 225 223 214 209 210 211 207 207 212 219 239 253 264 273 281 288 292 293 293 293 295 296 295 293 291 289 289
243 262 267 307 86 151 262 265 282 242 264 246 213 273 295 175 204 218 215 205 203 202 203 202 208 210 222 242 256 267 277 284 289 290 290 291 293 294 295 294 291 292 292 292
245 253 261 41 91 193 249 352 15 312 286 261 244 273 313 185 198 207 208 204 201 202 204 206 204 206 225 246 257 269 278 281 283 286 287 285 288 290 291 292 293 292 292 291
243 251 264 64 102 276 342 346 332 317 301 284 268 268 257 234 210 205 206 208 205 205 210 207 203 209 230 246 258 266 269 273 278 283 286 290 289 288 288 290 290 288 288 290
269 296 39 13 338 340 337 322 319 317 310 297 280 272 258 243 229 220 216 214 211 211 215 212 208 216 234 246 251 257 264 271 278 282 283 284 285 287 287 284 287 295 298 299
266 274 319 352 7 355 344 328 320 317 314 305 289 282 272 250 236 228 223 218 215 215 219 219 216 222 234 245 245 250 259 268 273 277 280 282 283 283 287 292 296 300 301 301
265 284 307 24 15 359 352 350 347 344 339 331 313 301 289 264 247 237 226 218 214 218 226 230 226 229 235 237 238 248 256 263 269 273 277 281 279 278 283 287 292 291 297 300
304 14 340 357 8 5 9 12 11 9 10 8 358 342 333 316 299 271 240 223 222 225 230 234 233 234 237 237 233 242 252 258 268 274 278 279 283 284 253 247 254 245 250 264
311 0 37 38 26 20 25 27 28 29 26 21 18 10 1 355 351 341 311 266 248 245 241 241 243 246 244 241 239 242 252 262 269 274 277 277 281 286 293 276 240 238 239 240
92 108 78 56 46 36 35 37 40 40 36 31 25 21 15 10 6 358 337 307 280 267 260 258 260 261 258 250 243 246 253 256 255 263 269 274 278 281 285 292 298 297 253 225
85 90 87 71 55 45 37 34 34 31 27 24 23 19 13 6 358 350 338 325 310 290 282 281 276 274 268 259 250 251 256 260 259 263 267 270 275 278 281 285 290 295 301 273
100 89 77 62 47 36 30 25 22 17 13 10 8 7 4 359 352 350 346 339 325 311 304 295 284 280 274 263 257 255 253 250 252 261 265 268 271 274 279 285 290 293 298 304
94 73 55 43 33 25 19 13 7 1 359 357 352 350 351 350 347 347 343 336 325 314 308 303 298 297 285 268 259 259 261 250 221 243 256 263 271 275 278 283 287 291 295 306
77 62 44 28 14 4 357 354 351 348 345 342 341 343 343 343 341 340 336 332 324 316 315 316 316 308 291 274 262 260 260 261 255 252 257 261 270 275 277 279 284 290 293 287
61 41 23 10 357 347 342 340 338 337 335 335 336 336 336 337 337 334 332 327 323 322 331 329 325 310 298 283 269 259 259 260 260 256 255 252 255 264 271 275 282 289 295 302
37 14 360 351 348 342 335 333 331 329 330 331 330 330 332 334 333 331 328 320 327 334 331 327 319 310 303 292 275 268 261 258 257 258 257 259 262 267 273 276 283 291 297 303
358 347 341 338 336 332 330 328 324 320 321 322 322 323 325 325 325 326 323 322 330 338 331 318 311 313 310 309 280 272 266 261 258 258 258 261 267 273 278 282 290 296 299 305
330 330 330 330 327 324 322 317 312 309 311 313 315 317 317 317 319 319 316 319 324 343 332 320 319 329 326 311 288 276 268 261 260 262 263 268 274 277 281 287 293 299 304 310
316 317 318 319 317 315 311 307 305 307 308 309 309 308 309 311 311 310 313 325 326 335 324 318 330 324 310 297 289 283 278 271 264 263 267 270 273 277 281 289 299 304 312 318
305 306 307 308 307 304 302 305 307 304 300 297 295 298 301 301 303 309 316 320 322 322 317 324 316 307 296 293 291 288 284 278 271 268 271 272 273 278 287 297 305 309 316 320
299 299 297 300 299 301 304 302 299 296 294 296 298 301 300 302 307 311 312 314 319 316 317 321 312 305 302 307 307 304 295 294 299 294 282 285 297 302 311 323 327 323 323 325
293 291 295 295 295 293 293 296 298 300 301 302 302 303 305 305 305 308 309 313 317 321 317 320 325 318 315 318 320 322 320 320 309 307 322 320 322 328 340 343 335 332 330 331
285 284 281 282 286 292 297 299 299 298 298 298 301 305 304 304 305 308 311 314 318 321 324 326 329 328 328 335 339 346 359 11 9 352 342 340 344 348 354 349 343 339 336 346
Height
1488 1485 1486 1488 1488 1486 1490 1490 1491 1487 1484 1480 1480 1483 1487 1490 1494 1497 1500 1502 1504 1506 1508 1509 1510 1510 1510 1510 1510 1509 1508 1507 1506 1504 1502 1499 1497 1495 1493 1491 1488 1486 1483 1481
1490 1483 1484 1487 1484 1482 1483 1483 1484 1483 1482 1477 1481 1485 1487 1489 1491 1494 1496 1499 1501 1502 1504 1505 1506 1506 1506 1506 1506 1505 1504 1503 1502 1500 1498 1496 1493 1491 1489 1486 1484 1481 1478 1475
1491 1481 1484 1489 1478 1477 1478 1477 1479 1480 1478 1478 1480 1483 1485 1487 1489 1491 1493 1495 1497 1499 1500 1501 1502 1502 1502 1503 1502 1501 1500 1499 1498 1496 1494 1492 1490 1487 1484 1481 1479 1476 1473 1470
1487 1488 1501 1480 1469 1472 1475 1474 1473 1475 1475 1478 1480 1482 1483 1485 1486 1488 1490 1492 1493 1495 1496 1497 1498 1498 1499 1499 1498 1498 1497 1495 1494 1492 1490 1487 1485 1482 1479 1476 1474 1471 1468 1465
1486 1488 1484 1472 1469 1471 1474 1474 1469 1472 1474 1476 1479 1480 1480 1481 1483 1485 1487 1488 1490 1491 1493 1494 1494 1495 1495 1495 1495 1494 1493 1492 1490 1488 1485 1483 1480 1478 1475 1472 1468 1465 1463 1459
1485 1492 1491 1474 1468 1471 1474 1476 1468 1471 1473 1474 1478 1476 1473 1476 1479 1481 1483 1484 1486 1487 1488 1489 1490 1491 1491 1491 1491 1490 1489 1488 1486 1483 1480 1478 1475 1472 1470 1467 1463 1460 1457 1454
1482 1485 1475 1468 1471 1473 1481 1478 1472 1472 1472 1473 1474 1474 1474 1474 1476 1477 1479 1480 1481 1483 1484 1485 1486 1486 1486 1487 1486 1486 1485 1483 1481 1478 1476 1473 1470 1467 1465 1462 1459 1455 1452 1448
1479 1484 1480 1472 1471 1473 1475 1475 1474 1473 1473 1472 1472 1472 1472 1473 1473 1474 1475 1476 1478 1478 1480 1481 1481 1481 1482 1482 1482 1481 1479 1478 1476 1474 1471 1469 1466 1462 1460 1457 1453 1450 1447 1443
1472 1474 1474 1474 1475 1477 1477 1475 1474 1473 1471 1470 1469 1468 1469 1469 1470 1470 1471 1472 1473 1474 1475 1476 1477 1477 1477 1477 1477 1476 1475 1473 1471 1469 1466 1463 1461 1458 1455 1453 1450 1446 1443 1439
1472 1469 1472 1475 1476 1477 1476 1475 1473 1471 1469 1467 1466 1465 1465 1465 1465 1466 1467 1468 1469 1469 1471 1472 1472 1472 1472 1472 1471 1470 1469 1468 1466 1464 1462 1459 1456 1454 1452 1449 1446 1442 1439 1435
1472 1471 1473 1474 1477 1477 1475 1473 1471 1469 1467 1465 1464 1463 1462 1462 1462 1463 1463 1464 1464 1465 1466 1467 1468 1468 1468 1467 1466 1465 1464 1462 1461 1459 1457 1454 1451 1449 1446 1443 1441 1437 1434 1430
1471 1477 1477 1479 1479 1477 1475 1472 1470 1468 1465 1464 1463 1461 1461 1460 1460 1460 1460 1460 1461 1461 1461 1462 1462 1462 1462 1462 1460 1459 1457 1457 1456 1454 1452 1449 1447 1444 1440 1438 1434 1431 1427 1424
1478 1478 1479 1480 1479 1477 1475 1473 1471 1468 1466 1464 1462 1461 1460 1459 1459 1458 1458 1458 1457 1457 1457 1457 1457 1457 1456 1456 1455 1453 1452 1451 1450 1448 1446 1444 1442 1439 1436 1433 1429 1426 1422 1419
1478 1479 1480 1480 1480 1478 1476 1474 1472 1470 1468 1465 1463 1461 1460 1459 1458 1456 1455 1454 1454 1453 1453 1452 1452 1451 1451 1450 1448 1447 1446 1445 1443 1442 1440 1438 1436 1433 1430 1427 1425 1421 1418 1414
1480 1480 1481 1482 1481 1479 1478 1476 1473 1471 1469 1467 1465 1462 1460 1459 1457 1455 1453 1451 1450 1449 1448 1447 1447 1446 1445 1444 1442 1440 1440 1439 1438 1436 1434 1433 1431 1428 1426 1423 1420 1416 1414 1411
1482 1483 1483 1483 1482 1480 1478 1476 1474 1473 1470 1468 1466 1464 1461 1459 1457 1454 1452 1450 1447 1446 1444 1443 1441 1440 1439 1437 1435 1434 1433 1431 1431 1430 1428 1427 1425 1423 1420 1418 1415 1412 1409 1407
1483 1484 1484 1483 1482 1481 1479 1478 1476 1473 1471 1469 1466 1464 1461 1458 1456 1453 1450 1448 1445 1443 1441 1439 1437 1435 1432 1430 1429 1428 1427 1425 1424 1422 1422 1421 1419 1417 1415 1413 1410 1408 1405 1402
1485 1485 1485 1484 1483 1481 1479 1477 1475 1473 1471 1468 1465 1463 1459 1457 1454 1451 1448 1445 1442 1440 1437 1435 1432 1428 1425 1423 1421 1420 1420 1419 1418 1417 1416 1415 1413 1412 1410 1408 1405 1403 1401 1398
1485 1485 1485 1483 1482 1480 1478 1476 1474 1472 1469 1466 1464 1461 1458 1455 1452 1449 1446 1443 1439 1436 1433 1430 1426 1422 1419 1417 1415 1414 1413 1412 1412 1411 1410 1409 1407 1406 1405 1403 1401 1399 1397 1394
1485 1485 1484 1482 1481 1479 1477 1474 1472 1469 1467 1464 1462 1459 1456 1453 1450 1447 1443 1440 1437 1434 1430 1426 1421 1418 1414 1412 1409 1408 1407 1406 1405 1405 1404 1403 1402 1401 1400 1398 1397 1395 1393 1391
1484 1483 1482 1480 1478 1476 1474 1472 1469 1467 1464 1462 1459 1456 1453 1451 1447 1444 1440 1436 1433 1429 1425 1421 1417 1414 1410 1407 1404 1402 1401 1400 1400 1399 1399 1398 1397 1396 1395 1394 1392 1391 1389 1387
1482 1481 1480 1478 1475 1473 1471 1468 1466 1463 1461 1459 1456 1453 1450 1447 1444 1440 1437 1434 1430 1425 1421 1417 1413 1409 1405 1401 1399 1397 1396 1395 1394 1394 1394 1393 1393 1392 1391 1390 1389 1387 1386 1384
1480 1478 1476 1474 1472 1469 1467 1464 1462 1459 1457 1455 1452 1449 1446 1443 1440 1436 1432 1429 1425 1421 1416 1412 1408 1403 1399 1396 1394 1392 1391 1390 1390 1389 1389 1389 1389 1388 1387 1387 1386 1384 1383 1382
1476 1474 1473 1470 1468 1465 1463 1460 1458 1455 1453 1450 1447 1444 1441 1438 1434 1431 1428 1424 1421 1416 1412 1407 1402 1397 1394 1391 1390 1388 1387 1386 1386 1385 1385 1385 1385 1384 1384 1383 1382 1381 1380 1379
1472 1470 1468 1466 1464 1460 1458 1455 1452 1450 1447 1444 1441 1439 1436 1433 1430 1426 1423 1420 1416 1411 1407 1402 1397 1393 1390 1388 1386 1384 1383 1382 1382 1382 1382 1382 1382 1381 1381 1380 1379 1379 1378 1377
1467 1465 1463 1461 1459 1456 1453 1450 1447 1444 1442 1439 1436 1433 1431 1428 1425 1421 1418 1415 1411 1406 1402 1398 1394 1390 1387 1385 1383 1381 1380 1379 1379 1379 1379 1379 1379 1378 1378 1377 1376 1376 1376 1375
1462 1459 1457 1455 1452 1450 1447 1445 1442 1439 1437 1434 1431 1428 1426 1423 1420 1416 1413 1409 1406 1402 1398 1394 1390 1387 1384 1382 1380 1378 1377 1376 1376 1376 1376 1376 1376 1375 1375 1374 1374 1374 1373 1373